sat.trackr.live / text

‹ back to catalog

GNOMES-5

NORAD 60574 · 2024-149DL

PAYLOAD ACTIVE UNKNOWN

§ Identity

Operator
Country
US
Launch date
2024-08-16
Launch site
AFWTR
Launch vehicle
Mass (kg)
RCS (m²)

External: N2YO · Heavens-Above · Gunter

§ Orbital elements

Epoch: 2026-05-25T02:25:48.279072Z

Period
95.94 min
Inclination
97.7013°
Eccentricity
0.0006764
Mean motion
15.00968330 rev/d
Perigee alt
559.2 km
Apogee alt
568.6 km
Semi-major
6,942.0 km
B*
3.3413e-4
RAAN
223.3705°
Arg perigee
195.2255°
Mean anomaly
164.8766°
Rev number
9,669

§ Raw data

GNOMES-51 60574U 24149DL  26145.10125323  .00004204  00000+0  33413-3 0  99932 60574  97.7013 223.3705 0006764 195.2255 164.8766 15.00968330 96698

JSON: /api/v1/satellites/60574 · /tle

For live sub-satellite position, see the globe view (requires WebGL).

§ Visibility from observer

Set your observer location to see the next 7 days of passes ≥ 10°. The values pass through the URL so the page stays shareable.

No JS? Fill the form by hand. The geolocation button needs JavaScript.